Tracking 20040 objects as of 18-Nov-2019
Live streaming from Space Station
objects crossing your sky now

SL-14 DEB

Track SL-14 DEB now!
10-day predictions


NORAD ID: 26015
Int'l Code: 1991-068AA
Perigee: 1,367.9 km
Apogee: 1,474.4 km
Inclination: 82.5 °
Period: 114.1 minutes
Semi major axis: 7792 km
RCS: 0.084 m2 (small)
Launch date: September 28, 1991
Source: Commonwealth of Independent States (former USSR) (CIS)
Launch site: PLESETSK MISSILE AND SPACE COMPLEX (PKMTR)

Note: This is SATELLITE DEBRIS
aabbcc
Your satellite tracking list
Your tracking list is empty




NASA's NSSDC Master Catalog

Two Line Element Set (TLE):
1 26015U 91068AA  19321.66289862 +.00000020 +00000-0 +55411-4 0  9993
2 26015 082.4835 030.3394 0068360 201.7256 312.3890 12.62161305294541
Source of the keplerian elements: AFSPC